weather.gov     
National Weather Service

Terminal Aerodrome Forecast
NWS Homepage
This page is being discontinued on March 12, 2014.
The same data is available at this site. Please update your bookmarks.
Thank you, and we apologize for the inconvenience.
Please send an email to SR-SRH.Webmaster@noaa.gov with any concerns.


Current Version
Previous Version:    01  02  03  04  05  06  07  08  09  10  11  12  13  14  15  16  17  18  19  20  21  22  23  24  25  
[Printable]
327
FTUS44 KCRP 231100
TAFCRP
TAF
KCRP 231128Z 2312/2412 36007KT P6SM FEW020 BKN150
      TEMPO 2313/2316 5SM BR SCT020 OVC150
     FM231600 03009KT P6SM BKN025 OVC120
     FM231800 07014KT P6SM SCT035 BKN100
     FM240400 VRB03KT P6SM SCT150=


U.S. Dept. of Commerce
NOAA National Weather Service
1325 East West Highway
Silver Spring, MD 20910
E-mail: w-nws.webmaster@noaa.gov
Page last modified: May 16, 2007
NATIONAL WEATHER SERVICE: for Safety, for Work, for Fun - FOR LIFE